Find Local Weather

World > North America > United States > New York

New York, New York Regional Weather

Lat: 40.71N, Lon: 74.01W
Wx Zone: NYZ072
Feedback

New York, NY Regional Weather

Expires:201903231900;;806805
ASUS41 KOKX 231813
RWROKX

Regional Weather Roundup
National Weather Service New York NY
200 PM EDT SAT MAR 23 2019

Note: "FAIR" indicates few or no clouds below 12,000 feet with no
significant weather and/or obstructions to visibility.


NYZ071-072-176-178-NJZ106-104-231900-
New York City Metro Area
  
CITY           SKY/WX    TMP DP  RH WIND       PRES   REMARKS
Central Park   FAIR      46  20  35 W12G28    29.92R                  
Bronx Lehman C   N/A     45  23  42 NW16        N/A                   
LaGuardia Arpt FAIR      45  21  38 W29G37    29.89R                  
Queens College   N/A     45  23  42 W24G44      N/A                   
Kennedy Intl   FAIR      47  23  38 W29G43    29.91R                  
Breezy Point   NOT AVBL                                               
Brooklyn Coll    N/A     45  21  39 W24G38      N/A                   
Staten Island    N/A     45  21  39 NW18G30     N/A                   
Newark/Liberty FAIR      47  19  33 W28G39    29.92R                  
Teterboro      FAIR      46  24  42 NW17G32   29.90R                  
$$
 

SKY/WX - Weather  TMP - Temperature  DP - Dew Point  RH - Relative Humidity
WIND - Wind Direction/Speed PRES - Barometric Pressure VSB - Visibility
WCI - Wind Chill Index E13G22 Wind - East Wind 13 mph/Gusts of 22 mph